Weather in Ilyina Gora

Russia / Novgorod Oblast     57°34′52″N   32°39′09″E
temp.,
°C
wind,
m/s
gust,
m/s
humid.,
%
clouds,
%
prec.,
mm/h
press.,
hPa
HPBL,
m
22 may, sun
sun2200:00+5e412692 0.0 1008452
03:00+3e413644 0.0 1009436
06:00+2ene411763 0.0 1009363
09:00+7ne46515 0.0 10091105
12:00+10ne46330 0.0 10091653
15:00+11nne46314 0.0 10081944
18:00+11nne46341 0.0 10081870
21:00+5nne22591 0.0 100913
23 may, mon
mon2300:00+2ne39632 0.0 1010185
03:000n22710 0.0 101142
06:00+1nnw27700 0.0 1012189
09:00+7nnw48432 0.0 1011961
12:00+12nnw69437 0.0 10091827
15:00+14nnw693513 0.0 10082311
18:00+13nw695652 0.0 10081806
21:00+8nnw5106977 0.1 1009956
24 may, tue
tue2400:00+4wnw21081100 0.0 1009212
03:00+5nw3119188 0.0 1010386
06:00+5nnw3107895 0.0 1010530
09:00+8nnw51235100 0.0 1010946
12:00+12nnw6112772 0.0 10101422
15:00+14nnw6102494 0.0 10111898
18:00+12n484487 0.0 10121619
21:00+6ne258295 0.0 1014218
25 may, wed
wed2500:00+4ene119186 0.0 101524
03:00+4sse0088100 0.0 101613
06:00+5n017899 0.0 1016159
09:00+9n125966 0.0 1016829
12:00+13nw345042 0.0 10151266
15:00+16nw34425 0.0 10131595
18:00+16nw343711 0.0 10131522
21:00+9nnw1164100 0.0 101210
26 may, thu
thu2600:00+7se226399 0.0 101215
03:00+6sse237010 0.0 101040
06:00+8se367374 0.0 1007128
09:00+15se465398 0.0 1004486
12:00+15sse3664100 0.0 1002517
15:00+11se2697100 3.1 1001273
18:00+9wnw51098100 5.3 1001501
21:00+8wnw41098100 8.9 1002607